Erie, PA

7:17 AM EDT on October 14, 2019 (GMT -0400)
Erie International

Weather History for KERI - August, 2019

Change the Weather History Date:

Wednesday, August 14, 2019

  Actual Average Record
Temperature  
Mean Temperature 72 °F 71 °F  
Max Temperature 78 °F 79 °F 94 °F (2002)
Min Temperature 66 °F 63 °F 47 °F (1964)
Degree Days  
Heating Degree Days 0 0  
Month to date heating degree days 0 0  
Since 1 June heating degree days 38 68  
Since 1 July heating degree days 0 7  
Cooling Degree Days 7 6  
Month to date cooling degree days 116 92  
Year to date cooling degree days 581 467  
Since 1 June cooling degree days 548 428  
Growing Degree Days 24 (Base 50)    
Moisture  
Dew Point 64 °F    
Average Humidity 75    
Maximum Humidity 90    
Minimum Humidity 60    
Precipitation  
Precipitation 0.00 in 0.11 in 0.89 in (1945)
Month to date precipitation 1.35 1.61  
Year to date precipitation 23.85 23.97  
Snow  
Snow 0.00 in 0.00 in - ()
Month to date snowfall 0.0 0.0  
Since 1 June snowfall 0.0 0.0  
Since 1 July snowfall 0.0 0.0  
Snow Depth 0.00 in    
Sea Level Pressure  
Sea Level Pressure 29.89 in    
Wind  
Wind Speed 8 mph (NE)    
Max Wind Speed 18 mph    
Max Gust Speed 22 mph    
Visibility 9 miles    
Events      
T = Trace of Precipitation, MM = Missing Value Source: NWS Daily Summary

Daily Weather History Graph

Daily Weather History Graph

Search for Another Location

Airport or City:

Astronomy

Aug. 14, 2019 Rise Set
Actual Time 6:27 AM EDT 8:22 PM EDT
Civil Twilight 5:56 AM EDT 8:53 PM EDT
Nautical Twilight 5:19 AM EDT 9:29 PM EDT
Astronomical Twilight 4:39 AM EDT 10:09 PM EDT
Moon 8:17 PM EDT 5:21 AM EDT
Length of Visible Light 14h 56m
Length of Day
13h 55m
Waxing Gibbous, 99% of the Moon is Illuminated
Aug 14
Waxing Gibbous
Aug 15
Full
Aug 23
Last Quarter
Aug 30
New
Sep 5
First Quarter

Hourly Weather History & Observations

Time (EDT) Temp. Dew Point Humidity Pressure Visibility Wind Dir Wind Speed Gust Speed Precip Events Conditions
12:39 AM 72.0 °F 69.1 °F 91% 29.84 in 7.0 mi Calm Calm - N/A   Scattered Clouds
12:51 AM 71.1 °F 68.0 °F 90% 29.83 in 5.0 mi Calm Calm - N/A   Mostly Cloudy
1:01 AM 72.0 °F 68.0 °F 87% 29.84 in 6.0 mi Calm Calm - N/A   Overcast
1:11 AM 72.0 °F 68.0 °F 87% 29.84 in 7.0 mi Calm Calm - N/A   Mostly Cloudy
1:51 AM 71.1 °F 68.0 °F 90% 29.83 in 6.0 mi Calm Calm - N/A   Partly Cloudy
2:51 AM 71.1 °F 66.9 °F 87% 29.82 in 6.0 mi Calm Calm - N/A   Overcast
3:51 AM 70.0 °F 66.9 °F 90% 29.82 in 5.0 mi Calm Calm - N/A   Mostly Cloudy
4:25 AM 70.0 °F 66.0 °F 87% 29.85 in 6.0 mi Calm Calm - N/A   Mostly Cloudy
4:51 AM 69.1 °F 66.0 °F 90% 29.83 in 5.0 mi Calm Calm - N/A   Scattered Clouds
5:04 AM 70.0 °F 66.9 °F 90% 29.84 in 5.0 mi Variable 3.5 mph - N/A   Mostly Cloudy
5:08 AM 70.0 °F 66.9 °F 90% 29.84 in 6.0 mi NE 6.9 mph - N/A   Mostly Cloudy
5:15 AM 71.1 °F 66.0 °F 84% 29.84 in 10.0 mi NE 10.4 mph - N/A   Mostly Cloudy
5:34 AM 71.1 °F 64.0 °F 78% 29.85 in 10.0 mi NNE 4.6 mph - N/A   Scattered Clouds
5:51 AM 71.1 °F 64.0 °F 78% 29.85 in 10.0 mi NNE 5.8 mph - N/A   Clear
6:51 AM 70.0 °F 63.0 °F 78% 29.86 in 10.0 mi ENE 6.9 mph - N/A   Partly Cloudy
7:51 AM 72.0 °F 64.9 °F 78% 29.88 in 10.0 mi East 4.6 mph - N/A   Partly Cloudy
8:51 AM 75.0 °F 66.0 °F 73% 29.89 in 10.0 mi NE 9.2 mph - N/A   Clear
9:12 AM 73.9 °F 66.0 °F 76% 29.91 in 10.0 mi ENE 8.1 mph - N/A   Mostly Cloudy
9:46 AM 75.2 °F 66.2 °F 73% 29.91 in 10.0 mi NE 8.1 mph - N/A   Mostly Cloudy
9:51 AM 75.9 °F 66.0 °F 71% 29.90 in 10.0 mi NE 6.9 mph - N/A   Mostly Cloudy
10:04 AM 77.0 °F 66.0 °F 69% 29.92 in 10.0 mi North 6.9 mph - N/A   Mostly Cloudy
10:51 AM 77.0 °F 66.0 °F 69% 29.91 in 10.0 mi NE 12.7 mph 17.3 mph N/A   Partly Cloudy
11:51 AM 77.0 °F 66.0 °F 69% 29.91 in 10.0 mi NNE 12.7 mph - N/A   Clear
12:51 PM 75.9 °F 64.9 °F 69% 29.92 in 10.0 mi NE 16.1 mph - N/A   Clear
1:51 PM 77.0 °F 64.9 °F 66% 29.92 in 10.0 mi NE 13.8 mph - N/A   Clear
2:51 PM 77.0 °F 63.0 °F 62% 29.92 in 10.0 mi ENE 16.1 mph - N/A   Clear
3:51 PM 75.9 °F 63.0 °F 64% 29.93 in 10.0 mi NNE 10.4 mph - N/A   Clear
4:01 PM 77.0 °F 63.0 °F 62% 29.94 in 10.0 mi NNE 12.7 mph - N/A   Clear
4:51 PM 77.0 °F 62.1 °F 60% 29.93 in 10.0 mi NE 13.8 mph - N/A   Clear
5:51 PM 75.9 °F 60.1 °F 58% 29.93 in 10.0 mi NNE 13.8 mph - N/A   Clear
6:51 PM 75.0 °F 60.1 °F 60% 29.94 in 10.0 mi NE 11.5 mph - N/A   Clear
7:51 PM 73.9 °F 59.0 °F 59% 29.93 in 10.0 mi NE 11.5 mph 17.3 mph N/A   Clear
8:51 PM 72.0 °F 57.9 °F 61% 29.94 in 10.0 mi ENE 8.1 mph - N/A   Clear
9:51 PM 70.0 °F 57.0 °F 63% 29.96 in 10.0 mi East 5.8 mph - N/A   Clear
10:51 PM 69.1 °F 55.9 °F 63% 29.97 in 10.0 mi East 3.5 mph - N/A   Clear
11:51 PM 68.0 °F 55.9 °F 65% 29.98 in 10.0 mi Calm Calm - N/A   Clear